Wind_Speed
17 17 17 17 18 18 17 17 17 17 16 16 17 18 19 20 20 19 19 18 18 18 17 16 15 16 16 17 18 19 19 20 20 21 21 21 20 20 20 20 22 24 25 26 26 26 25 24 24 24 24 23 23 24 24 22 21 20 21 21 20 21 21 21 20 21 20 19 19 18 17 16 16 16 16 15 14 15 15 14 14 13 12 12 12
16 16 16 16 16 16 16 17 17 17 16 16 17 18 19 19 19 19 18 18 18 19 19 18 17 17 17 18 18 19 20 20 20 20 20 20 20 21 22 22 23 24 25 25 25 26 25 24 23 24 25 25 24 23 23 23 22 21 21 22 21 21 22 21 21 21 21 20 19 19 18 17 16 16 16 15 14 15 15 15 14 13 12 12 13
17 16 15 14 15 15 15 16 16 16 16 16 16 17 18 18 18 18 17 17 17 18 18 18 18 18 18 19 20 21 22 22 23 22 22 22 22 22 24 24 25 25 26 26 25 25 26 26 25 25 26 26 24 24 23 23 23 22 22 23 22 22 23 22 22 21 21 21 20 19 19 18 17 17 17 16 15 15 16 15 15 14 13 13 13
17 17 16 14 14 15 15 15 15 15 15 15 16 17 18 18 18 17 17 17 17 18 18 19 19 20 20 20 21 22 23 24 25 24 24 24 24 25 26 27 27 28 28 26 26 26 27 27 26 26 27 26 25 26 25 23 22 22 22 24 24 22 23 23 23 22 22 21 21 20 19 19 18 17 17 17 15 16 16 16 15 14 13 13 13
17 18 16 14 13 14 15 15 15 15 15 15 16 17 18 19 18 18 18 18 18 19 19 20 20 21 21 22 23 24 25 26 26 26 25 25 25 26 27 28 29 30 29 27 27 26 26 27 26 26 26 25 25 25 25 24 24 24 24 24 24 23 22 23 24 23 22 22 21 21 20 19 19 18 18 17 16 16 17 16 16 15 14 13 13
18 17 16 14 13 13 14 15 15 15 15 15 17 18 19 19 19 18 18 18 19 19 20 21 22 22 23 23 24 25 26 26 27 26 26 26 26 27 28 29 30 30 30 28 27 27 26 26 26 26 26 24 24 24 24 25 25 27 26 25 25 24 23 23 24 24 23 23 22 21 21 20 19 19 19 18 17 17 17 17 17 16 14 14 14
17 16 15 14 12 13 14 15 14 14 15 16 17 18 18 19 19 19 18 18 19 20 21 22 23 24 24 24 25 26 26 26 26 26 26 27 28 28 29 30 30 31 30 29 28 28 27 26 25 26 26 24 23 24 25 24 24 26 26 25 24 24 24 24 25 26 25 23 22 22 22 21 20 20 20 19 18 18 17 17 17 17 15 14 14
18 16 14 13 11 13 14 14 14 14 15 16 17 17 18 18 18 18 18 18 19 20 21 22 24 24 25 26 26 27 27 27 27 27 27 27 28 29 29 30 31 31 31 30 29 29 28 27 26 26 26 25 23 23 25 24 24 25 25 25 25 24 24 25 25 26 26 25 23 23 23 22 21 21 21 20 19 19 18 18 18 18 16 15 15
17 13 12 12 10 12 14 14 14 14 15 16 16 16 16 17 17 17 18 18 19 20 22 23 24 25 26 27 27 27 27 27 27 27 28 28 29 29 30 31 32 32 32 31 30 29 28 27 27 27 27 27 25 24 24 24 25 24 24 26 27 26 25 25 26 27 27 27 25 24 24 23 23 22 22 22 21 20 19 18 19 19 17 16 16
11 8 10 10 10 12 13 13 14 14 15 15 15 15 15 16 16 16 17 18 19 20 22 23 24 25 26 27 27 27 27 28 28 28 28 29 29 29 30 31 32 32 32 31 30 29 28 28 27 27 27 27 27 25 24 25 25 24 24 26 27 28 26 25 26 27 28 28 26 25 24 24 24 23 22 23 22 21 20 19 20 20 18 17 16
6 6 10 11 10 12 13 13 14 14 14 14 14 14 15 15 16 15 16 17 18 19 21 22 24 25 26 26 27 28 27 28 28 29 29 29 29 30 29 29 30 31 31 31 30 29 29 28 28 27 27 28 27 26 25 25 26 26 25 26 27 28 27 25 26 27 28 28 27 26 26 25 24 24 23 23 23 22 21 20 20 20 19 18 17
5 8 11 10 10 12 13 13 13 13 13 13 13 14 15 15 15 16 16 16 18 19 20 22 23 24 25 26 27 28 28 28 28 29 29 29 29 29 29 28 28 29 29 29 29 29 29 29 29 29 28 29 28 27 26 25 26 28 27 26 28 29 28 26 26 27 27 28 28 27 27 26 26 25 24 24 24 23 22 21 21 21 20 19 18
9 12 12 9 11 13 13 13 13 13 12 12 13 14 15 16 16 17 17 17 18 19 21 22 24 25 26 27 27 28 28 29 29 29 29 29 28 28 28 28 28 27 27 28 28 28 28 29 29 29 29 29 29 28 27 26 27 28 28 27 28 29 28 27 27 27 27 27 28 28 28 27 27 26 25 25 25 24 23 22 22 22 21 20 20
12 14 12 10 12 14 14 13 13 12 12 12 13 14 16 17 18 18 18 19 20 21 22 24 25 27 28 28 29 29 30 30 30 29 29 29 28 28 28 28 28 28 27 28 28 28 28 29 30 30 29 29 29 28 27 26 26 27 27 26 28 29 29 28 28 27 28 28 28 29 28 28 28 27 26 25 25 25 24 24 23 23 22 22 21
14 14 11 11 13 14 14 13 12 11 11 13 14 16 17 18 20 20 20 21 22 22 24 25 26 27 28 29 29 30 31 32 32 31 30 29 28 27 27 28 28 27 28 28 28 29 29 30 30 29 29 29 28 28 27 27 25 25 25 26 27 28 29 29 29 28 27 28 28 28 29 29 28 28 28 26 26 26 25 25 24 24 23 23 22
14 13 11 13 15 15 14 12 12 11 12 14 15 17 18 19 21 22 23 23 23 24 24 26 27 28 28 28 27 28 28 31 33 33 31 30 29 28 27 27 28 27 27 27 28 29 29 30 30 29 28 28 28 28 27 26 24 22 23 24 25 27 29 29 29 29 27 27 29 29 30 30 30 29 29 28 27 27 27 26 26 25 25 24 23
13 12 12 15 15 14 13 12 12 12 14 15 17 18 19 20 21 23 24 25 26 26 26 27 27 28 28 27 26 24 24 26 29 32 32 30 29 29 27 26 27 27 27 28 28 28 29 30 30 29 28 28 28 27 26 25 23 21 21 22 23 26 28 28 29 29 26 26 29 29 30 31 31 30 29 29 28 28 27 27 27 27 26 25 24
11 11 14 15 15 14 12 12 12 13 15 16 17 19 20 21 22 23 24 25 26 27 28 28 28 28 27 26 25 23 22 23 25 28 31 32 30 29 28 26 26 27 27 28 29 28 28 29 29 29 29 28 28 27 25 24 22 20 20 20 21 24 27 27 28 29 26 25 28 29 29 31 31 30 30 29 29 29 28 28 28 28 28 26 26
10 13 15 15 14 13 12 12 13 15 16 17 18 19 20 22 23 24 25 26 26 27 28 29 29 28 27 26 26 24 23 23 23 24 27 31 32 31 29 28 27 28 27 28 30 29 28 28 29 29 28 28 28 27 25 23 21 21 20 20 21 24 25 27 28 28 26 25 26 27 28 31 32 31 31 30 30 30 29 29 29 29 29 28 27
11 14 15 15 14 13 13 13 15 16 17 17 18 19 21 22 23 24 25 25 26 27 28 28 29 28 28 28 27 27 26 25 25 24 24 27 30 32 32 30 29 29 28 29 30 30 29 29 28 28 28 27 27 27 26 24 22 21 20 20 21 24 25 26 28 28 28 26 26 27 29 31 33 32 31 31 31 31 30 30 30 30 30 29 29
13 15 15 14 13 13 14 15 16 16 17 18 19 20 21 22 23 24 24 25 26 27 27 27 27 27 27 28 28 28 29 28 27 27 26 26 28 31 32 32 31 31 30 30 30 29 28 28 28 27 27 27 26 25 25 24 22 21 20 18 20 23 25 26 27 27 27 26 26 27 28 30 32 32 31 31 32 32 32 31 31 31 31 31 30
14 15 15 14 14 14 14 15 16 17 18 19 20 20 21 22 23 24 25 26 27 26 26 26 26 26 26 27 27 28 28 29 29 29 29 29 29 30 31 31 31 31 31 31 30 28 27 27 28 27 27 26 25 24 24 24 22 21 19 17 18 21 24 26 26 27 27 26 26 26 26 28 31 32 32 32 33 33 33 32 32 32 32 31 31
14 15 15 14 14 15 15 16 17 18 19 19 20 21 21 22 24 25 27 27 26 25 25 25 25 25 26 26 26 27 27 28 28 29 30 30 31 31 31 30 29 30 30 30 29 29 27 26 26 27 27 26 25 24 23 23 22 20 19 17 18 21 22 24 25 26 27 27 26 26 26 27 30 32 32 32 33 33 33 33 33 33 33 32 32
14 15 15 15 15 15 16 17 18 18 19 19 20 21 22 24 25 26 27 25 24 24 24 24 25 25 26 26 27 27 28 28 29 29 30 31 31 32 31 30 30 30 29 29 29 28 28 27 26 27 27 26 25 24 23 22 21 20 18 17 18 20 21 22 23 25 27 27 26 27 28 28 29 31 32 33 34 33 34 34 34 33 33 34 33
15 15 15 15 15 16 17 18 18 19 19 20 21 22 23 25 27 26 25 23 23 23 24 24 25 26 27 27 28 29 29 29 30 31 31 31 32 32 32 31 31 30 30 29 29 29 28 27 27 27 27 27 26 25 23 22 20 19 18 17 17 18 19 21 22 23 25 27 27 28 29 30 29 29 31 34 35 35 35 34 34 34 34 35 35
14 14 15 15 16 16 17 18 19 19 20 20 21 23 25 26 26 25 23 22 22 23 24 25 25 26 27 28 29 29 30 31 31 32 32 32 31 31 32 32 31 31 30 30 30 30 30 29 28 28 27 27 26 26 24 22 21 19 18 17 17 17 18 20 22 23 25 27 28 29 30 30 30 29 29 32 34 37 38 38 36 35 35 36 37
14 15 15 16 17 17 18 19 19 19 20 21 23 25 26 26 25 23 22 22 23 24 24 25 26 27 28 29 29 30 31 32 32 33 32 32 31 31 30 31 32 32 32 32 31 30 31 30 29 28 28 27 26 26 25 24 22 20 18 18 17 17 18 20 22 23 25 28 29 30 31 31 31 30 30 31 32 34 39 44 42 39 38 38 38
14 15 16 17 17 18 18 19 19 20 21 22 24 26 26 25 24 22 22 23 23 24 25 26 27 28 28 29 30 31 32 32 33 33 32 32 31 31 31 31 32 32 32 32 32 31 30 31 31 29 28 28 27 26 26 25 23 22 20 19 18 18 18 20 22 23 24 26 29 31 32 32 32 31 31 31 32 32 34 39 42 42 42 40 40
15 16 17 17 17 18 18 19 20 21 22 24 25 25 25 24 23 22 22 23 24 25 26 26 27 28 29 29 30 31 32 32 32 32 32 32 32 32 33 32 32 32 32 32 32 31 30 30 30 30 29 28 27 26 26 25 24 23 22 21 20 19 19 19 21 23 23 25 27 31 32 32 33 32 32 33 36 35 33 33 34 39 44 44 41
16 16 17 18 18 17 18 19 20 22 24 25 25 25 24 24 22 22 23 24 25 25 26 27 27 28 29 30 31 32 32 32 32 33 33 33 33 33 33 33 33 33 33 32 32 31 31 30 29 29 29 28 27 26 26 25 25 24 24 23 22 21 20 20 21 22 24 25 26 28 32 34 35 35 35 36 37 36 36 34 31 32 39 44 44
16 17 17 18 18 18 18 19 21 23 24 25 25 25 24 24 23 23 24 24 25 26 26 27 28 28 29 31 32 33 33 33 33 33 34 34 34 34 34 34 34 34 33 33 32 31 31 30 29 29 29 28 28 27 26 25 25 24 24 24 23 22 22 22 22 23 24 26 27 28 31 35 36 36 36 37 37 37 37 37 34 32 34 38 42
16 17 17 17 18 19 20 21 22 23 24 24 25 25 24 24 24 24 24 25 26 26 27 27 28 29 30 32 33 33 33 33 34 34 34 34 35 35 35 35 35 34 34 34 33 32 31 30 30 29 29 28 28 27 26 25 25 25 25 25 25 24 24 24 24 24 25 26 28 29 30 34 37 38 38 38 37 38 38 38 38 36 34 35 37
16 17 17 17 19 20 21 22 23 23 23 24 25 25 25 25 26 25 25 26 27 27 28 28 28 30 31 32 33 33 33 34 34 34 34 35 35 35 35 35 35 35 35 34 34 34 32 31 31 30 29 29 28 28 28 27 26 26 26 26 26 26 25 25 25 26 26 27 29 29 27 27 30 34 39 41 40 40 40 40 39 37 37 36 35
16 17 17 18 20 21 22 23 24 24 23 23 24 25 26 26 27 27 27 28 28 28 29 29 29 31 32 33 33 33 33 34 34 34 35 35 35 35 36 36 36 36 36 35 35 34 33 33 32 31 31 30 30 29 29 29 29 28 28 28 28 29 28 27 27 28 29 28 29 31 28 25 24 26 32 41 44 43 41 41 38 36 36 36 35
16 17 18 19 20 21 22 23 24 24 24 24 24 25 26 27 27 27 27 29 29 29 29 29 30 31 32 33 33 33 34 34 34 34 35 35 35 36 36 36 36 36 35 35 35 34 33 33 32 32 32 32 32 32 31 31 30 30 30 30 30 31 31 30 29 30 31 30 30 30 30 28 26 24 25 32 40 43 43 42 40 37 37 36 36
17 18 19 20 21 22 23 24 25 25 25 25 25 25 26 27 27 27 28 29 30 30 30 30 30 32 33 33 33 33 34 34 34 35 35 35 35 35 35 35 35 34 34 34 34 34 34 33 33 33 33 32 32 32 33 33 32 30 30 30 31 31 32 32 32 31 32 33 32 31 30 30 29 28 26 27 31 36 40 43 44 42 40 38 37
18 19 20 21 23 24 25 25 26 26 26 26 25 25 26 27 27 27 28 29 30 30 30 30 31 32 33 33 33 33 34 34 34 34 34 34 34 34 34 34 34 33 33 34 34 34 34 35 35 35 35 34 34 33 33 33 33 33 32 31 30 31 32 33 33 32 33 34 33 32 32 32 31 31 30 29 29 31 34 39 44 47 46 41 38
19 20 22 23 25 26 26 26 26 27 26 26 25 25 26 26 27 27 28 29 30 30 30 30 31 32 32 32 32 33 33 34 33 33 33 33 33 33 33 33 34 34 34 35 35 36 36 37 37 37 36 36 35 34 32 31 30 31 32 32 30 30 31 32 33 33 33 34 34 34 33 33 33 33 33 32 32 31 32 36 40 45 49 47 41
21 23 24 26 27 27 27 27 27 27 26 26 26 26 26 26 27 27 28 29 29 30 30 30 31 31 31 32 32 33 33 33 32 32 33 33 33 33 34 34 35 35 36 36 37 37 37 38 38 37 37 36 35 34 33 31 29 28 28 29 29 29 30 31 32 32 32 32 33 34 33 33 35 35 35 35 34 32 32 35 39 42 46 48 45
23 25 26 27 28 28 27 27 27 27 26 27 27 27 27 27 27 27 27 28 28 29 29 30 30 30 31 31 32 32 32 32 32 32 32 33 33 33 34 35 35 36 36 37 37 37 37 37 37 36 36 35 34 33 32 32 31 30 29 28 28 28 28 29 31 31 32 31 31 32 33 33 34 35 36 36 36 36 34 34 37 41 44 46 48
25 26 27 28 28 28 28 28 28 27 27 28 28 27 26 27 27 26 26 27 28 28 28 29 29 29 30 31 32 32 32 31 31 31 32 32 33 34 34 35 36 36 37 37 37 37 37 36 36 36 35 33 32 31 30 29 28 28 29 28 28 27 27 27 28 30 30 30 30 31 31 32 32 34 36 37 37 38 38 36 36 39 42 44 47
26 26 27 28 28 28 29 29 29 28 28 28 28 27 26 27 26 25 25 26 27 28 27 28 28 29 30 31 31 31 30 30 30 31 31 32 33 34 35 36 37 37 38 37 37 37 36 36 35 34 34 32 31 30 28 27 27 26 27 27 28 28 27 27 27 28 28 28 28 29 30 31 31 32 34 37 38 39 40 40 38 38 40 41 42
26 26 27 27 27 28 29 30 29 29 29 28 28 27 26 26 26 24 24 26 27 27 26 27 27 28 29 30 31 30 29 29 30 30 31 32 33 35 36 37 38 38 38 38 38 38 37 37 36 34 33 32 31 30 28 27 26 26 25 25 26 26 27 27 27 28 28 28 27 27 27 28 30 30 31 33 36 38 39 41 40 39 40 39 38
25 26 26 27 28 29 29 29 29 28 28 28 27 26 26 25 24 23 24 26 26 26 25 26 27 28 29 30 30 29 28 29 30 31 32 33 34 36 37 38 39 39 39 39 39 39 38 37 36 34 33 31 30 29 28 27 26 26 25 24 24 24 25 25 26 27 29 29 29 28 27 27 27 27 29 30 33 35 37 39 41 41 42 41 39
25 26 27 28 28 29 29 29 28 28 28 27 27 26 25 23 22 23 25 26 25 25 25 25 26 28 29 29 29 28 28 29 30 31 32 34 35 37 38 39 40 40 40 40 39 39 39 38 36 33 31 30 28 28 27 26 26 25 25 24 24 23 23 23 24 25 27 28 29 29 29 28 28 27 27 28 30 32 34 36 39 40 42 43 43
25 26 28 28 29 28 28 28 28 28 28 27 26 25 24 22 22 23 25 25 25 24 24 25 26 27 28 28 27 27 27 29 30 31 33 35 37 38 39 40 40 39 40 40 40 39 38 36 34 32 30 29 28 27 26 25 24 23 22 22 22 21 21 20 20 20 22 23 24 26 27 27 28 28 28 27 28 29 31 33 36 38 40 42 44
26 27 28 28 29 28 28 27 27 28 27 26 25 24 22 22 22 24 25 25 24 23 24 25 26 27 28 27 26 26 27 29 30 32 34 36 38 39 40 40 40 39 39 40 40 39 37 34 33 31 29 29 28 26 25 24 24 23 22 22 21 22 22 22 21 20 20 21 21 22 23 24 26 27 28 27 27 28 29 31 33 35 38 39 41
26 28 28 29 29 28 27 27 27 27 26 25 24 23 22 21 23 24 25 24 23 23 23 25 26 27 27 26 26 26 27 29 30 32 34 37 39 40 41 40 40 39 39 40 40 38 35 32 31 29 28 28 27 25 24 24 23 23 23 24 24 25 25 25 25 24 24 24 23 23 23 22 22 23 25 26 27 28 28 30 31 32 35 36 38
27 28 29 30 30 29 27 27 27 27 25 24 24 22 21 21 23 24 24 24 23 22 23 25 26 26 26 26 25 26 27 29 31 33 35 37 39 41 41 40 40 40 40 40 38 36 33 31 29 28 28 27 25 24 23 22 22 23 24 24 25 25 25 25 24 23 23 23 23 23 23 23 22 22 22 23 24 26 27 29 30 31 32 34 35
28 29 30 31 30 29 28 27 27 26 24 23 23 22 21 21 23 24 24 24 23 23 24 25 25 25 25 25 25 26 28 29 31 33 35 38 40 41 41 41 41 41 41 39 36 33 31 30 28 27 26 25 24 23 22 22 22 23 24 24 24 24 24 24 24 24 23 23 23 23 23 23 23 23 22 21 22 23 24 26 28 30 31 33 34
29 30 31 31 30 29 28 27 27 25 23 23 23 21 21 21 23 24 25 24 23 23 24 25 25 25 25 25 25 27 28 30 31 33 36 38 40 41 41 41 41 41 39 37 33 31 30 29 28 26 24 23 22 22 22 22 23 24 24 25 25 25 25 24 24 24 23 22 22 22 21 21 21 21 22 21 21 22 22 23 25 27 29 31 33
Wind_Direction
292 294 297 298 300 301 303 304 303 305 309 316 324 329 332 331 328 326 324 322 321 320 320 320 319 319 320 322 323 323 323 322 321 320 320 321 322 321 321 323 324 325 325 322 322 323 320 316 311 304 298 292 286 282 281 278 273 271 270 269 266 261 255 251 250 251 252 250 249 248 246 243 242 246 250 251 252 250 247 245 245 247 250 252 256
288 292 294 295 296 298 300 300 300 303 308 315 322 326 327 325 324 322 320 319 318 318 318 317 314 313 312 312 313 316 317 317 316 316 317 319 320 321 323 326 326 325 325 325 327 325 321 318 312 306 302 296 289 284 282 282 279 275 273 272 270 265 258 252 249 248 249 249 248 247 245 243 239 241 246 248 249 249 246 244 243 244 246 249 253
289 290 289 290 292 293 293 293 294 297 302 310 318 321 321 320 318 316 315 314 313 313 312 311 308 306 305 307 310 313 315 316 316 317 318 320 322 324 326 327 325 326 328 329 328 324 323 322 313 306 303 297 290 286 285 285 283 280 276 273 273 271 265 256 250 247 247 247 247 246 244 242 238 237 242 245 247 248 246 243 242 242 243 246 250
292 292 288 285 288 290 289 289 289 292 298 307 313 317 317 317 316 314 313 312 311 310 309 308 306 305 305 307 309 312 313 315 316 317 318 321 324 326 327 326 326 328 330 331 327 325 327 326 317 306 299 294 291 288 285 283 283 280 276 273 272 271 269 262 253 249 246 245 245 245 244 241 237 234 237 241 243 246 246 243 241 240 240 243 247
291 291 287 283 286 288 288 287 288 292 299 306 312 316 317 317 316 315 313 312 311 310 310 308 307 306 306 308 309 310 312 313 315 316 317 320 322 324 324 323 324 326 329 330 327 326 326 325 322 313 304 298 294 289 283 281 280 276 271 269 269 268 268 266 259 252 248 245 243 244 244 241 237 233 234 237 240 243 245 243 241 239 238 240 244
291 290 284 282 285 286 285 285 288 294 302 309 314 317 319 318 318 316 314 312 312 311 311 310 308 308 308 309 309 310 310 311 313 315 317 318 319 320 319 319 321 323 324 326 324 324 324 323 322 318 312 304 296 290 283 280 279 276 269 263 264 263 263 264 261 256 250 246 243 243 244 242 238 233 232 234 236 240 242 242 241 238 237 237 241
297 296 286 281 285 284 283 285 291 299 306 312 316 319 321 320 319 317 315 314 314 314 312 311 310 309 309 309 310 310 310 311 313 315 316 316 315 315 315 315 317 319 321 323 323 321 321 322 321 320 317 309 299 291 285 280 278 276 270 261 258 259 258 259 259 257 252 247 243 242 243 243 239 234 231 232 233 237 240 240 240 238 236 235 239
300 298 286 277 280 281 283 288 294 302 307 313 318 320 322 320 319 317 317 318 319 318 316 314 312 311 311 311 311 311 311 313 314 316 315 313 312 311 312 313 315 317 319 320 320 319 319 320 321 321 320 314 304 294 287 283 278 274 270 264 258 256 255 256 256 255 252 248 243 240 241 241 240 235 231 231 231 234 236 238 239 238 235 234 236
299 293 281 274 277 278 282 289 295 302 308 315 319 321 322 320 319 320 321 324 323 321 319 316 314 314 313 312 312 312 313 315 315 315 314 312 311 311 312 313 314 316 317 317 317 317 317 319 320 320 319 317 310 299 290 285 280 274 269 267 261 256 255 253 254 253 251 249 245 240 239 240 239 236 232 230 230 231 233 235 237 237 235 233 235
295 285 279 278 277 276 282 290 296 304 310 316 320 321 321 320 322 324 325 325 323 321 320 318 317 316 314 313 313 314 315 315 316 316 315 313 312 312 312 313 314 315 316 317 317 317 317 318 319 318 317 316 312 303 294 286 282 275 267 264 260 256 254 251 250 251 249 247 245 242 239 238 238 236 232 230 229 229 231 232 236 237 234 233 234
291 286 284 282 279 278 284 292 298 305 311 316 320 320 320 320 323 326 325 323 321 320 319 319 318 316 316 315 315 315 316 318 318 318 316 315 314 313 314 315 316 316 317 318 318 317 318 318 318 316 315 314 312 306 297 288 283 278 268 262 259 255 251 248 247 248 248 245 243 242 240 238 237 236 233 230 228 228 229 230 233 235 233 232 233
281 295 290 283 280 280 285 291 297 303 309 314 317 318 318 319 322 324 325 323 321 321 320 319 318 317 317 317 317 317 318 319 318 318 317 316 316 315 316 317 317 318 319 319 318 318 318 318 317 316 315 315 314 309 300 291 284 278 270 263 260 254 248 248 247 246 246 244 243 241 239 239 236 235 234 231 228 227 227 228 231 233 233 231 232
275 293 293 283 280 279 282 287 293 300 306 312 316 317 317 319 320 321 322 322 322 322 321 320 318 318 318 318 318 318 318 319 318 318 318 316 316 316 317 317 318 318 319 319 318 317 318 318 318 317 319 320 317 312 304 296 288 280 272 264 259 253 246 246 246 245 244 244 243 240 237 237 236 234 233 231 229 227 226 228 229 231 232 231 231
280 292 291 282 277 275 278 285 291 299 306 312 314 314 315 316 317 318 320 322 323 323 322 321 318 318 319 319 320 319 318 318 318 318 318 317 316 316 317 317 318 318 319 320 319 319 319 319 319 320 322 322 319 314 307 300 292 282 272 263 257 251 243 243 246 244 244 244 243 240 236 236 236 234 232 230 229 227 226 227 229 230 230 231 231
286 288 283 275 272 273 279 285 292 298 305 310 310 312 314 316 317 318 321 323 323 322 321 319 318 317 318 318 319 319 319 319 318 318 317 316 316 316 317 317 317 319 319 320 321 321 321 320 321 322 323 322 319 316 312 306 295 284 274 264 256 248 239 238 242 243 243 244 243 240 236 234 235 233 232 230 228 227 226 227 228 229 229 230 231
279 277 272 269 269 274 280 285 291 299 305 308 310 313 315 317 318 319 321 322 322 321 319 317 315 315 314 315 316 317 318 318 317 316 316 315 315 316 318 318 318 319 319 320 321 321 321 321 322 323 323 323 321 318 314 309 299 285 276 267 257 245 236 234 238 240 241 243 243 241 236 234 234 233 231 230 228 227 226 227 228 229 228 229 231
270 269 267 266 269 275 279 285 294 301 306 309 312 314 316 317 318 319 320 321 322 321 318 315 314 313 313 314 315 315 316 316 314 314 314 314 314 315 317 318 317 317 318 320 321 322 321 321 323 324 324 324 325 322 317 311 301 287 277 270 257 241 233 232 235 237 239 241 243 241 238 234 233 232 230 229 229 227 226 226 228 229 229 229 230
264 264 264 266 270 275 281 291 298 304 307 309 312 314 316 317 318 319 320 320 320 318 316 315 314 314 315 316 317 317 316 315 315 314 313 313 313 314 315 317 316 317 319 320 322 322 322 322 323 324 325 325 326 326 320 312 303 290 279 270 255 241 234 232 233 236 238 241 243 242 239 234 232 232 230 229 229 229 227 226 227 229 229 229 230
256 259 262 267 272 277 287 296 301 305 307 310 312 315 317 317 319 320 320 319 318 316 315 316 317 318 320 321 321 322 320 318 317 316 315 314 313 313 314 316 318 318 320 321 322 322 324 324 324 325 325 325 327 327 323 315 308 296 284 271 254 242 237 233 233 236 238 240 242 243 242 235 231 232 230 229 229 229 229 227 228 229 230 230 230
255 258 263 269 275 284 293 299 303 306 308 310 313 316 317 317 319 320 319 317 316 315 315 317 320 321 323 324 324 324 322 320 318 317 315 314 314 314 315 318 319 319 320 321 322 323 325 325 325 325 325 325 326 327 326 320 312 303 291 276 256 243 237 234 235 237 239 241 240 242 243 236 231 231 230 229 229 230 230 229 228 229 230 231 230
256 261 266 272 279 289 296 300 304 307 308 311 314 316 317 318 319 318 316 316 315 316 317 320 321 323 324 325 325 324 322 321 320 318 317 316 316 317 317 319 321 320 320 321 322 323 325 325 326 326 325 325 325 326 327 324 317 308 297 282 261 246 238 236 237 238 238 239 239 241 243 238 232 231 231 230 230 230 230 230 230 230 230 231 231
257 263 268 276 285 293 299 302 304 306 308 311 314 316 316 317 317 316 316 316 317 319 321 322 323 323 325 325 325 324 323 322 322 321 320 319 319 318 317 320 321 321 321 322 323 324 325 325 325 326 326 326 324 324 326 326 323 313 299 282 261 247 240 237 238 238 237 237 238 239 243 240 234 232 231 232 231 231 231 231 231 231 230 231 232
260 266 274 283 291 296 300 302 303 305 308 311 314 314 314 315 315 316 317 318 320 322 323 324 324 326 327 326 325 324 324 323 321 320 320 320 320 319 318 319 320 321 321 322 323 323 324 325 326 326 327 325 324 323 324 326 326 319 303 283 263 249 242 239 238 239 239 239 238 238 240 240 237 235 234 234 234 233 233 232 232 232 231 231 232
264 270 278 286 292 297 300 301 303 306 308 311 312 313 314 315 316 317 319 320 322 323 324 326 327 328 328 328 327 326 325 323 321 321 321 321 321 320 320 320 321 321 321 321 321 322 323 324 325 325 325 325 324 323 321 322 325 323 309 288 268 255 248 244 243 244 245 243 240 238 239 239 239 238 236 236 236 235 234 234 234 234 233 232 232
266 273 281 289 294 298 299 301 303 306 308 310 311 313 315 316 318 319 321 323 324 325 326 328 329 329 329 328 327 326 325 324 323 323 323 323 323 322 322 322 322 323 323 321 321 320 321 322 322 323 323 324 323 322 320 319 320 322 313 295 275 262 255 251 249 248 248 247 245 242 240 239 240 240 239 238 238 237 236 236 236 236 235 234 233
269 278 286 292 296 298 299 301 303 306 307 308 311 314 315 317 319 321 323 324 325 326 327 328 329 329 329 329 328 327 327 326 325 325 325 325 325 324 324 322 322 322 322 321 321 320 320 321 321 320 321 321 320 320 319 317 315 316 314 304 286 270 260 255 252 249 247 246 245 243 242 240 239 241 242 242 242 241 239 237 237 237 237 236 235
274 283 288 292 295 297 299 300 302 304 306 308 311 314 316 318 320 322 324 325 326 327 327 328 330 331 331 330 329 329 328 327 327 326 326 325 325 324 325 324 323 322 322 321 321 320 319 320 319 319 318 318 317 316 316 315 313 310 310 308 299 282 266 258 255 253 250 247 244 243 242 241 240 239 241 245 247 246 243 240 238 237 238 237 236
279 284 287 290 293 296 297 299 301 303 305 308 311 314 317 319 320 323 325 325 326 327 328 330 333 333 332 331 330 330 329 328 328 327 326 325 325 324 324 324 323 322 322 321 320 320 320 319 318 317 316 315 315 314 313 312 310 307 305 304 302 295 280 266 259 256 255 251 247 244 243 241 240 239 241 245 248 249 248 245 242 239 237 237 237
279 283 285 289 293 295 297 299 301 302 305 308 311 314 317 318 320 323 325 325 326 327 329 332 334 334 332 331 331 330 329 328 328 327 326 326 325 324 323 323 322 321 321 321 320 320 320 318 317 316 315 314 312 312 311 309 307 305 303 299 298 297 291 278 265 259 256 254 249 246 244 242 241 240 239 242 244 246 247 249 251 246 237 233 235
277 281 285 289 292 294 296 298 299 302 305 309 312 314 316 317 320 323 324 325 326 328 330 332 333 332 331 331 330 330 329 328 328 328 327 326 326 325 324 324 323 322 322 321 320 320 319 318 316 315 314 313 311 310 309 308 307 304 301 298 295 292 291 286 276 266 258 255 251 247 244 241 240 239 237 238 242 244 245 245 250 253 244 236 234
277 282 286 289 291 293 294 295 298 302 306 309 311 313 315 317 321 323 324 325 325 326 329 332 332 330 330 330 330 329 328 328 328 328 327 327 327 327 326 325 324 323 322 321 320 319 319 318 317 315 314 313 311 309 308 307 306 304 301 298 294 290 287 286 283 275 266 258 253 251 249 245 243 241 238 237 240 244 247 246 244 248 252 247 241
277 281 284 287 290 292 294 296 299 303 306 308 310 311 314 318 321 323 323 323 324 326 328 330 329 329 329 329 329 328 328 327 328 328 328 328 328 327 326 325 324 323 322 321 321 320 319 318 317 315 314 312 311 309 308 306 304 302 300 297 294 290 286 283 282 280 275 267 259 257 256 248 245 244 240 237 238 240 244 248 246 243 247 252 252
275 278 281 284 288 291 295 298 301 303 306 308 309 311 315 318 320 322 322 322 323 325 326 327 327 328 328 328 327 327 327 327 328 329 329 328 327 326 326 325 325 324 324 323 322 321 320 319 317 316 314 312 311 309 307 306 303 301 299 297 294 291 287 283 280 278 277 273 268 268 266 255 248 247 243 238 236 236 239 244 248 246 245 248 254
273 276 280 284 288 293 297 300 303 305 308 309 310 312 315 317 318 320 321 322 322 323 324 326 327 327 327 327 326 326 327 328 329 329 329 328 327 327 327 327 326 326 325 324 323 322 321 320 318 317 315 312 310 309 307 305 303 300 297 295 293 291 288 284 280 277 275 274 274 275 275 268 260 255 247 239 235 235 236 240 244 247 249 250 251
272 277 282 286 290 295 299 302 305 308 310 311 312 313 314 314 316 318 320 320 320 321 322 324 325 326 326 326 326 326 327 329 329 329 329 328 328 328 327 327 326 325 324 323 323 322 321 320 318 316 315 313 311 309 307 305 303 301 298 295 292 289 287 285 282 278 275 273 272 273 275 273 268 263 255 243 236 235 235 236 238 239 245 250 251
274 279 284 289 293 297 300 304 307 311 313 313 313 312 311 312 313 316 319 318 318 319 321 322 324 324 325 325 326 327 328 329 330 330 329 329 328 328 327 326 325 324 324 323 322 321 320 319 318 317 315 314 312 310 307 304 302 300 297 295 291 288 285 283 281 279 276 273 271 268 269 269 267 263 258 251 244 241 238 236 235 233 234 240 246
276 282 288 292 296 299 302 306 310 313 315 314 312 310 308 309 312 315 316 317 317 318 319 321 322 324 325 326 327 328 329 330 330 329 329 328 328 327 326 326 325 325 324 323 322 321 320 319 319 318 317 315 314 313 311 309 305 302 299 295 292 288 285 282 279 277 275 273 270 267 264 264 263 261 258 254 252 250 247 242 237 232 231 232 237
279 286 291 295 297 301 304 308 312 314 314 313 312 310 308 309 310 312 314 315 316 317 318 320 322 324 325 326 328 328 329 329 329 328 328 328 328 328 328 328 327 327 326 324 323 322 321 319 318 317 317 316 315 314 313 311 308 305 302 298 294 290 286 282 279 277 275 273 270 268 264 261 260 259 258 256 254 252 250 248 242 235 231 230 231
285 290 293 295 298 302 306 309 312 313 312 311 311 312 312 311 310 310 311 313 314 316 318 320 322 324 326 327 328 328 328 328 328 328 328 329 330 330 331 330 329 329 328 327 325 324 322 321 319 318 317 316 315 314 312 310 307 304 301 299 296 293 289 285 281 278 275 273 272 270 267 263 259 258 257 256 256 254 249 246 245 242 236 232 230
288 290 292 296 299 303 306 309 311 311 310 310 311 315 316 314 311 310 309 310 313 315 318 321 324 326 327 327 327 327 327 328 328 329 329 331 332 333 332 332 331 330 329 328 327 326 324 323 322 320 319 318 318 317 316 314 312 308 305 302 299 295 292 289 286 282 278 275 272 270 269 266 262 260 258 255 254 255 252 246 243 243 242 237 233
287 289 292 296 300 303 306 309 311 311 311 311 313 317 317 315 312 310 309 311 314 316 319 324 326 327 327 327 327 327 327 328 329 330 331 333 334 334 333 332 332 331 330 328 327 326 326 325 324 322 321 319 318 316 314 312 309 307 303 300 298 295 291 287 286 285 283 280 277 273 270 267 263 260 259 258 255 253 253 251 247 241 239 239 236
287 290 293 296 299 303 306 309 311 311 311 312 315 317 316 313 311 309 311 313 315 318 322 325 326 326 327 326 326 327 327 328 329 331 333 334 334 334 334 333 332 331 329 328 327 326 325 324 323 322 320 318 315 313 311 308 305 303 302 300 299 298 295 291 287 284 282 281 280 278 275 272 267 263 259 258 256 254 252 251 251 244 236 235 236
287 290 294 296 299 303 306 309 310 310 310 312 315 316 314 311 309 309 312 314 316 320 324 325 325 326 326 326 326 326 326 328 330 332 334 334 334 334 334 333 332 331 329 328 327 326 325 324 323 321 319 317 315 314 313 312 309 307 304 302 300 299 298 296 294 290 287 283 281 279 276 274 272 269 264 260 257 256 253 251 250 247 242 238 234
289 293 297 299 302 304 306 308 308 308 310 313 315 314 311 308 308 309 312 314 317 322 324 325 325 325 325 325 325 325 326 328 331 333 334 335 335 335 335 334 332 331 329 328 327 327 326 325 323 321 319 318 317 317 317 316 314 312 309 306 303 301 299 298 296 294 292 290 288 285 281 276 274 271 268 265 261 258 256 253 251 248 246 243 237
293 297 300 301 303 305 306 307 307 307 309 311 312 310 308 307 307 309 312 315 318 322 324 324 324 324 324 324 324 324 326 329 332 334 335 336 336 335 335 334 332 331 329 328 328 328 327 325 324 322 321 320 320 320 319 318 317 316 315 313 310 306 302 297 293 289 288 288 288 288 287 283 280 276 272 268 264 261 258 255 254 252 248 245 242
296 298 300 301 302 304 305 306 305 305 307 308 307 306 305 304 306 309 313 316 319 322 322 322 322 322 323 323 322 324 327 330 332 334 336 336 336 336 335 333 332 331 330 329 328 328 327 326 326 325 324 324 324 323 322 321 320 319 318 317 314 311 307 301 294 287 282 281 281 283 285 284 282 280 278 273 268 265 261 258 256 255 253 249 247
296 297 299 300 302 304 305 305 303 304 305 305 304 302 301 302 306 311 314 316 319 321 321 321 321 321 321 321 322 324 327 330 333 335 336 337 337 336 334 333 332 331 331 329 328 328 328 327 328 329 328 327 326 326 326 325 325 325 324 323 323 324 325 323 318 312 304 297 292 290 289 287 283 280 279 277 272 269 266 262 259 256 256 254 251
295 297 299 301 303 304 304 302 300 301 302 302 300 297 297 301 307 312 314 316 319 320 320 320 320 320 320 320 322 325 327 330 333 335 336 337 336 335 334 333 332 331 330 329 328 328 329 330 331 331 330 330 329 330 331 332 333 334 335 337 338 338 336 334 331 327 321 315 309 304 300 296 290 286 282 280 277 272 269 266 262 259 258 256 254
295 298 300 302 304 304 302 299 297 297 298 297 296 294 295 301 309 313 314 316 318 318 318 319 318 318 318 320 322 324 327 330 332 334 336 337 336 335 334 333 332 331 330 329 329 330 331 332 333 333 332 331 332 333 336 338 340 342 344 345 343 339 335 334 332 327 323 319 316 312 309 305 300 294 289 285 281 278 274 270 266 263 260 258 257
297 300 302 303 303 302 298 295 294 295 294 293 292 292 294 302 309 312 313 314 316 316 316 316 316 316 317 319 322 324 327 329 332 334 336 336 335 335 334 333 332 331 330 330 331 332 333 334 334 334 334 334 335 336 338 340 342 344 345 343 340 338 338 336 334 331 329 326 323 318 315 311 307 303 298 293 288 283 280 276 271 267 264 260 258
298 300 301 302 301 298 295 293 294 294 291 290 291 291 294 302 308 310 311 312 313 313 314 314 315 315 317 319 321 324 326 329 332 334 335 335 335 335 334 333 332 332 332 333 334 335 336 335 335 334 335 337 338 338 340 342 343 344 343 341 340 340 341 340 339 337 335 330 325 321 318 315 311 307 305 302 297 291 286 282 277 273 268 265 261
Height
5856 5856 5855 5855 5855 5854 5854 5853 5852 5851 5850 5849 5848 5846 5845 5844 5843 5842 5841 5840 5839 5838 5837 5836 5835 5834 5833 5831 5830 5829 5827 5826 5824 5823 5822 5820 5818 5817 5815 5814 5812 5810 5809 5807 5806 5804 5803 5801 5799 5797 5795 5794 5793 5792 5792 5791 5791 5791 5790 5789 5789 5788 5787 5787 5787 5787 5787 5787 5788 5788 5788 5788 5789 5789 5790 5790 5790 5790 5790 5790 5790 5790 5790 5790 5790
5855 5854 5854 5854 5853 5853 5853 5852 5851 5850 5849 5848 5847 5846 5845 5844 5842 5841 5840 5839 5838 5837 5836 5836 5835 5834 5832 5831 5830 5828 5827 5825 5824 5823 5821 5819 5817 5815 5814 5812 5811 5809 5807 5806 5805 5802 5800 5798 5797 5795 5793 5791 5790 5789 5789 5789 5789 5789 5788 5788 5787 5787 5786 5785 5785 5785 5785 5785 5785 5785 5786 5786 5787 5787 5788 5788 5788 5788 5788 5788 5789 5789 5789 5789 5789
5854 5853 5853 5853 5852 5852 5852 5852 5851 5850 5849 5848 5847 5846 5845 5843 5842 5841 5840 5839 5838 5838 5836 5835 5834 5833 5831 5830 5829 5827 5825 5824 5822 5821 5819 5817 5815 5813 5811 5810 5808 5807 5805 5804 5802 5799 5797 5796 5794 5792 5790 5789 5788 5788 5788 5787 5787 5787 5787 5786 5786 5785 5785 5784 5783 5783 5782 5783 5783 5783 5783 5784 5784 5785 5785 5786 5786 5786 5787 5787 5787 5787 5787 5787 5788
5853 5852 5852 5851 5851 5851 5851 5851 5850 5850 5849 5848 5847 5845 5844 5843 5842 5840 5839 5838 5838 5837 5836 5835 5833 5832 5830 5828 5827 5825 5823 5822 5820 5818 5817 5815 5813 5811 5809 5807 5805 5804 5803 5801 5799 5797 5795 5793 5791 5789 5787 5786 5785 5785 5785 5784 5784 5784 5784 5784 5783 5784 5783 5783 5782 5781 5780 5780 5781 5781 5781 5782 5782 5783 5783 5784 5784 5785 5785 5785 5785 5786 5786 5786 5786
5851 5850 5850 5850 5849 5849 5849 5849 5849 5849 5848 5847 5846 5844 5843 5842 5841 5839 5838 5837 5836 5835 5834 5833 5832 5831 5829 5827 5825 5823 5822 5820 5818 5816 5815 5813 5811 5809 5807 5805 5803 5802 5800 5799 5797 5796 5794 5791 5789 5787 5784 5784 5782 5781 5780 5781 5780 5780 5780 5780 5780 5781 5781 5781 5780 5779 5779 5778 5778 5779 5779 5779 5780 5781 5781 5782 5782 5783 5783 5784 5784 5784 5784 5784 5785
5849 5848 5849 5848 5848 5848 5848 5848 5848 5847 5846 5845 5844 5843 5842 5841 5839 5838 5837 5835 5834 5833 5832 5832 5830 5829 5827 5826 5824 5822 5820 5818 5817 5815 5813 5811 5809 5807 5805 5803 5802 5800 5798 5797 5795 5794 5792 5790 5787 5784 5782 5781 5779 5778 5777 5777 5777 5776 5775 5776 5776 5777 5778 5778 5778 5778 5777 5776 5776 5777 5777 5777 5778 5779 5779 5779 5780 5781 5781 5782 5782 5782 5783 5783 5783
5847 5847 5847 5847 5847 5847 5847 5847 5847 5846 5845 5844 5843 5842 5840 5839 5838 5837 5836 5834 5833 5832 5831 5830 5829 5828 5826 5824 5822 5820 5818 5817 5815 5813 5811 5809 5807 5805 5803 5801 5800 5798 5797 5795 5793 5791 5789 5788 5786 5783 5780 5778 5777 5776 5775 5774 5774 5772 5772 5772 5772 5773 5774 5775 5775 5775 5775 5774 5774 5774 5775 5775 5776 5777 5777 5777 5778 5778 5779 5780 5780 5781 5781 5781 5781
5846 5846 5846 5845 5845 5846 5846 5846 5845 5845 5843 5842 5841 5840 5839 5838 5837 5835 5834 5832 5831 5830 5829 5829 5827 5826 5824 5822 5820 5818 5816 5815 5813 5811 5810 5807 5805 5803 5801 5799 5797 5796 5794 5793 5791 5789 5787 5785 5783 5781 5778 5776 5775 5773 5772 5771 5770 5769 5769 5769 5769 5769 5770 5771 5772 5772 5772 5772 5772 5772 5772 5773 5774 5774 5775 5775 5776 5776 5777 5778 5779 5779 5779 5780 5780
5845 5844 5844 5844 5844 5844 5844 5845 5844 5843 5842 5841 5840 5839 5838 5837 5836 5834 5832 5831 5830 5829 5828 5827 5826 5824 5822 5820 5818 5816 5814 5813 5811 5809 5808 5806 5804 5802 5799 5797 5795 5793 5792 5790 5788 5786 5784 5782 5780 5778 5776 5774 5772 5771 5769 5768 5767 5766 5766 5766 5766 5766 5766 5767 5768 5769 5770 5770 5769 5770 5770 5771 5771 5772 5773 5773 5774 5774 5775 5776 5776 5777 5778 5778 5778
5843 5843 5843 5843 5843 5843 5843 5843 5842 5842 5841 5840 5839 5838 5837 5836 5835 5833 5831 5830 5828 5827 5826 5825 5824 5822 5821 5819 5816 5814 5812 5810 5808 5807 5805 5804 5802 5800 5798 5795 5792 5790 5789 5787 5785 5783 5781 5780 5778 5776 5773 5771 5769 5768 5766 5765 5763 5763 5762 5762 5763 5763 5763 5763 5765 5766 5766 5766 5766 5767 5768 5768 5769 5770 5770 5771 5771 5772 5773 5774 5774 5775 5776 5776 5776
5841 5842 5843 5842 5842 5842 5841 5841 5841 5840 5839 5839 5838 5837 5835 5834 5833 5832 5830 5829 5827 5826 5825 5823 5822 5821 5819 5817 5814 5812 5810 5808 5806 5805 5803 5801 5799 5797 5796 5793 5790 5788 5786 5784 5782 5780 5778 5776 5775 5773 5771 5768 5766 5764 5763 5762 5760 5759 5759 5759 5759 5759 5760 5760 5761 5762 5762 5763 5763 5763 5765 5766 5766 5767 5768 5769 5769 5770 5770 5771 5772 5773 5774 5774 5774
5841 5841 5842 5841 5840 5840 5840 5839 5839 5839 5838 5837 5836 5835 5834 5833 5832 5830 5829 5828 5826 5825 5824 5822 5821 5819 5817 5815 5813 5810 5807 5806 5804 5803 5801 5799 5797 5795 5793 5791 5789 5786 5784 5781 5779 5777 5775 5774 5772 5770 5767 5765 5763 5761 5760 5759 5757 5756 5755 5756 5755 5755 5756 5756 5757 5758 5758 5759 5759 5760 5761 5763 5764 5765 5765 5766 5767 5767 5768 5769 5770 5771 5772 5772 5772
5840 5840 5840 5839 5839 5839 5839 5838 5838 5837 5837 5836 5835 5834 5833 5831 5830 5829 5828 5826 5825 5823 5822 5821 5819 5818 5816 5814 5811 5808 5805 5803 5802 5800 5799 5797 5794 5792 5790 5789 5787 5785 5782 5779 5777 5775 5773 5771 5769 5766 5764 5762 5759 5757 5756 5755 5754 5752 5752 5752 5751 5751 5753 5753 5752 5753 5754 5756 5756 5756 5758 5759 5761 5762 5763 5764 5764 5765 5766 5767 5767 5768 5769 5770 5770
5839 5839 5838 5838 5838 5838 5838 5837 5836 5836 5835 5834 5833 5832 5831 5830 5829 5827 5826 5825 5823 5821 5820 5819 5817 5815 5814 5811 5808 5805 5802 5800 5799 5797 5796 5794 5792 5790 5788 5786 5784 5782 5780 5777 5774 5772 5770 5768 5766 5763 5761 5759 5756 5753 5752 5751 5750 5748 5748 5748 5747 5747 5748 5749 5749 5750 5751 5752 5753 5753 5754 5756 5757 5759 5760 5761 5762 5763 5763 5764 5765 5766 5767 5768 5768
5837 5837 5836 5837 5837 5837 5836 5835 5835 5834 5833 5832 5831 5831 5829 5828 5826 5825 5824 5822 5821 5820 5819 5818 5816 5814 5812 5809 5806 5803 5799 5796 5794 5794 5793 5791 5789 5788 5786 5783 5781 5779 5777 5775 5772 5769 5767 5765 5763 5761 5758 5756 5753 5750 5748 5746 5745 5744 5743 5743 5743 5743 5744 5745 5747 5747 5747 5749 5750 5750 5751 5752 5754 5756 5757 5758 5759 5760 5761 5762 5763 5764 5765 5765 5766
5836 5836 5836 5836 5836 5836 5835 5834 5833 5832 5831 5831 5830 5828 5827 5826 5824 5822 5821 5820 5819 5818 5817 5816 5815 5813 5810 5808 5806 5802 5799 5795 5791 5789 5789 5788 5786 5785 5783 5781 5778 5776 5774 5772 5770 5767 5765 5762 5760 5758 5756 5753 5750 5748 5745 5742 5741 5739 5738 5739 5739 5739 5740 5742 5744 5744 5744 5745 5747 5747 5748 5749 5751 5752 5754 5755 5756 5757 5758 5759 5760 5761 5762 5763 5764
5834 5834 5835 5835 5835 5834 5833 5833 5831 5830 5830 5829 5827 5826 5825 5824 5822 5820 5819 5817 5816 5815 5815 5814 5812 5811 5808 5806 5804 5802 5799 5796 5792 5788 5786 5785 5783 5782 5781 5779 5776 5773 5772 5770 5768 5765 5762 5759 5757 5755 5752 5750 5748 5745 5742 5740 5738 5736 5735 5734 5735 5736 5736 5738 5740 5740 5741 5742 5743 5744 5745 5746 5747 5749 5751 5752 5753 5754 5755 5756 5758 5759 5760 5760 5761
5832 5833 5833 5833 5833 5833 5832 5831 5829 5828 5828 5827 5826 5824 5823 5821 5820 5818 5817 5815 5814 5813 5811 5811 5809 5808 5806 5804 5802 5800 5798 5796 5793 5788 5783 5781 5780 5779 5778 5776 5774 5771 5769 5767 5765 5762 5760 5757 5754 5752 5749 5747 5745 5743 5740 5738 5735 5734 5732 5731 5732 5733 5733 5735 5736 5736 5738 5740 5740 5741 5742 5743 5744 5746 5747 5749 5750 5751 5752 5753 5755 5756 5757 5758 5759
5831 5831 5832 5832 5832 5831 5829 5828 5827 5827 5826 5825 5824 5822 5821 5819 5818 5817 5815 5814 5813 5811 5809 5807 5806 5804 5802 5800 5798 5796 5795 5793 5791 5788 5783 5779 5776 5775 5774 5773 5771 5769 5767 5764 5762 5759 5757 5754 5752 5749 5747 5745 5742 5740 5738 5736 5733 5731 5730 5729 5729 5730 5730 5732 5733 5734 5736 5737 5738 5738 5739 5740 5741 5742 5744 5746 5747 5748 5749 5751 5752 5753 5754 5755 5756
5830 5830 5830 5830 5830 5828 5827 5826 5826 5825 5824 5823 5822 5820 5819 5817 5816 5815 5814 5812 5811 5809 5807 5805 5803 5800 5798 5796 5794 5792 5790 5789 5787 5786 5783 5779 5775 5771 5770 5769 5768 5766 5764 5762 5759 5756 5754 5752 5749 5747 5745 5743 5740 5738 5735 5733 5731 5729 5728 5727 5727 5727 5728 5729 5730 5731 5732 5734 5735 5736 5736 5737 5738 5739 5741 5742 5743 5745 5746 5748 5749 5750 5751 5752 5753
5828 5829 5829 5828 5828 5827 5826 5825 5824 5823 5822 5820 5819 5818 5817 5815 5814 5813 5812 5811 5809 5807 5805 5803 5800 5798 5795 5793 5790 5788 5786 5784 5783 5781 5780 5777 5774 5770 5767 5765 5764 5762 5761 5759 5757 5754 5752 5749 5747 5745 5743 5741 5738 5736 5733 5731 5729 5727 5725 5724 5724 5725 5725 5726 5727 5728 5730 5730 5731 5732 5733 5734 5735 5736 5737 5739 5740 5741 5743 5744 5746 5747 5748 5749 5750
5827 5827 5827 5827 5826 5825 5824 5823 5822 5821 5819 5818 5817 5816 5815 5813 5812 5811 5810 5808 5806 5804 5802 5800 5798 5796 5793 5791 5788 5786 5784 5781 5779 5777 5775 5773 5772 5769 5767 5765 5762 5759 5758 5756 5754 5752 5750 5747 5745 5743 5741 5739 5736 5734 5732 5729 5727 5725 5723 5721 5721 5722 5723 5723 5724 5725 5727 5727 5727 5728 5729 5731 5732 5733 5734 5735 5737 5738 5739 5741 5742 5743 5745 5746 5747
5826 5826 5825 5825 5824 5823 5822 5821 5820 5819 5817 5816 5815 5814 5813 5812 5810 5809 5807 5806 5804 5802 5800 5798 5796 5793 5791 5789 5786 5784 5782 5780 5777 5775 5773 5771 5769 5766 5765 5763 5761 5758 5756 5754 5751 5749 5747 5745 5743 5740 5738 5737 5735 5732 5730 5728 5725 5723 5721 5719 5719 5719 5720 5721 5721 5722 5723 5724 5724 5725 5726 5728 5729 5729 5731 5732 5733 5735 5736 5737 5739 5740 5741 5743 5744
5824 5824 5824 5823 5822 5821 5820 5819 5818 5817 5815 5814 5814 5812 5811 5810 5808 5807 5805 5803 5801 5799 5797 5795 5793 5791 5788 5786 5784 5782 5780 5778 5775 5773 5771 5769 5767 5764 5762 5760 5758 5756 5754 5751 5749 5747 5744 5742 5740 5739 5736 5734 5733 5731 5729 5726 5724 5722 5720 5718 5718 5718 5718 5719 5720 5721 5721 5722 5722 5723 5724 5725 5725 5726 5728 5729 5730 5731 5732 5734 5735 5737 5738 5739 5740
5823 5823 5822 5822 5821 5819 5818 5817 5816 5815 5814 5813 5812 5810 5809 5807 5806 5804 5803 5801 5799 5797 5795 5792 5790 5788 5786 5783 5781 5779 5777 5775 5772 5770 5768 5766 5764 5761 5759 5757 5755 5753 5751 5749 5747 5744 5742 5740 5738 5736 5735 5732 5730 5729 5727 5725 5723 5721 5719 5717 5716 5716 5717 5717 5718 5718 5718 5719 5720 5721 5721 5722 5722 5723 5724 5725 5726 5728 5729 5730 5732 5733 5734 5735 5736
5822 5821 5820 5820 5819 5818 5817 5815 5814 5813 5812 5811 5810 5808 5807 5805 5804 5802 5801 5799 5797 5795 5792 5790 5788 5786 5783 5781 5779 5777 5774 5772 5770 5767 5765 5763 5761 5759 5756 5754 5752 5750 5749 5747 5744 5742 5739 5738 5736 5734 5732 5730 5728 5726 5724 5723 5721 5719 5718 5716 5715 5715 5715 5714 5714 5714 5714 5714 5716 5717 5718 5719 5719 5720 5721 5722 5723 5724 5725 5726 5727 5729 5730 5731 5732
5820 5819 5818 5818 5817 5816 5815 5813 5812 5812 5810 5809 5808 5806 5805 5803 5801 5800 5799 5797 5794 5792 5790 5788 5786 5783 5781 5779 5777 5774 5772 5769 5767 5765 5763 5761 5759 5757 5754 5752 5750 5748 5746 5744 5742 5740 5737 5735 5733 5732 5730 5728 5726 5724 5722 5720 5719 5717 5716 5714 5713 5712 5712 5711 5711 5711 5711 5710 5711 5713 5714 5715 5715 5717 5718 5718 5719 5720 5720 5721 5723 5725 5726 5727 5728
5818 5817 5817 5816 5815 5814 5813 5812 5811 5810 5808 5807 5805 5804 5802 5800 5799 5798 5796 5794 5792 5790 5788 5785 5783 5781 5779 5777 5774 5772 5769 5767 5764 5762 5760 5758 5756 5754 5752 5750 5748 5746 5744 5741 5739 5737 5735 5732 5730 5729 5727 5725 5724 5722 5720 5718 5716 5714 5713 5712 5710 5709 5709 5708 5708 5707 5707 5707 5708 5708 5710 5711 5711 5713 5714 5714 5715 5716 5716 5716 5718 5720 5721 5722 5723
5816 5816 5815 5814 5814 5813 5811 5810 5809 5808 5806 5805 5803 5801 5800 5798 5797 5796 5794 5791 5789 5787 5785 5783 5780 5778 5777 5774 5772 5770 5767 5764 5762 5760 5758 5756 5754 5751 5749 5747 5745 5743 5742 5739 5736 5734 5733 5730 5728 5726 5724 5723 5721 5720 5718 5716 5714 5712 5710 5709 5708 5707 5706 5705 5704 5704 5704 5704 5704 5704 5705 5707 5707 5709 5710 5709 5709 5711 5712 5712 5714 5715 5716 5717 5718
5815 5814 5813 5812 5812 5811 5810 5808 5807 5806 5804 5802 5801 5799 5798 5796 5795 5793 5791 5789 5787 5785 5783 5780 5778 5776 5775 5772 5770 5767 5765 5762 5760 5758 5755 5753 5751 5748 5746 5744 5742 5740 5739 5737 5734 5732 5730 5728 5726 5723 5721 5720 5718 5717 5715 5713 5711 5709 5707 5706 5705 5704 5703 5702 5701 5701 5700 5700 5700 5701 5701 5701 5702 5703 5705 5704 5704 5706 5707 5708 5710 5712 5712 5713 5713
5813 5813 5812 5811 5810 5809 5808 5807 5805 5804 5802 5800 5799 5797 5796 5794 5792 5790 5788 5786 5784 5782 5780 5778 5776 5774 5773 5770 5768 5765 5763 5760 5758 5755 5753 5750 5748 5746 5743 5741 5739 5737 5735 5733 5731 5729 5727 5725 5723 5721 5719 5717 5715 5714 5712 5710 5708 5706 5705 5703 5702 5701 5700 5699 5698 5697 5697 5697 5697 5697 5697 5697 5697 5699 5700 5700 5701 5702 5703 5704 5705 5707 5708 5709 5709
5812 5811 5810 5809 5808 5807 5806 5805 5803 5802 5800 5798 5797 5795 5793 5791 5790 5788 5786 5784 5782 5780 5778 5776 5774 5772 5770 5768 5766 5763 5760 5758 5755 5753 5750 5748 5745 5743 5741 5739 5736 5734 5732 5730 5727 5725 5724 5722 5720 5718 5716 5714 5712 5710 5709 5707 5706 5704 5702 5700 5699 5698 5697 5696 5695 5694 5694 5693 5693 5693 5692 5692 5693 5694 5695 5696 5697 5697 5699 5699 5700 5702 5704 5705 5705
5810 5809 5808 5807 5806 5805 5804 5802 5801 5800 5798 5797 5795 5792 5791 5789 5787 5785 5783 5781 5780 5778 5776 5774 5772 5770 5768 5766 5763 5761 5758 5755 5753 5750 5748 5745 5743 5741 5738 5736 5733 5731 5728 5726 5724 5722 5720 5718 5716 5714 5713 5711 5709 5707 5705 5704 5702 5700 5699 5697 5695 5694 5693 5692 5691 5691 5690 5689 5688 5688 5688 5688 5688 5689 5689 5690 5692 5693 5694 5695 5696 5698 5700 5700 5701
5808 5807 5806 5806 5804 5803 5801 5800 5799 5798 5796 5795 5792 5790 5788 5786 5784 5783 5781 5779 5777 5775 5774 5772 5770 5768 5766 5764 5761 5759 5756 5753 5751 5748 5746 5743 5741 5738 5736 5733 5730 5728 5725 5723 5721 5718 5716 5714 5713 5711 5709 5707 5705 5704 5702 5700 5698 5696 5695 5694 5692 5690 5689 5688 5687 5686 5685 5685 5684 5683 5683 5683 5683 5683 5683 5684 5685 5687 5689 5690 5691 5693 5695 5696 5697
5806 5805 5804 5803 5802 5801 5799 5798 5796 5795 5794 5792 5790 5787 5786 5784 5782 5781 5778 5776 5775 5773 5771 5769 5768 5766 5764 5761 5759 5756 5753 5751 5748 5746 5743 5741 5738 5736 5733 5731 5728 5725 5723 5720 5718 5715 5713 5711 5709 5707 5705 5703 5701 5699 5698 5696 5694 5691 5690 5689 5688 5686 5684 5683 5683 5681 5680 5680 5680 5679 5678 5678 5678 5678 5678 5679 5680 5682 5683 5685 5686 5688 5689 5690 5692
5804 5803 5802 5801 5800 5798 5797 5795 5794 5793 5791 5789 5787 5785 5783 5781 5780 5778 5776 5774 5772 5771 5769 5767 5765 5763 5761 5759 5756 5754 5751 5749 5746 5744 5741 5739 5736 5734 5731 5728 5726 5723 5720 5718 5715 5713 5711 5708 5706 5704 5702 5700 5698 5695 5693 5691 5689 5688 5686 5684 5682 5681 5680 5679 5678 5676 5675 5674 5674 5675 5674 5674 5674 5674 5674 5674 5675 5676 5678 5679 5681 5682 5683 5684 5685
5801 5801 5800 5799 5797 5796 5794 5793 5791 5790 5788 5786 5784 5783 5781 5779 5777 5775 5774 5772 5770 5768 5766 5765 5763 5761 5759 5756 5754 5751 5749 5746 5744 5742 5739 5737 5734 5731 5729 5726 5723 5721 5718 5715 5713 5710 5708 5705 5702 5700 5698 5695 5693 5691 5688 5686 5683 5682 5681 5679 5677 5675 5674 5674 5673 5671 5670 5669 5669 5669 5669 5669 5670 5670 5670 5670 5670 5671 5671 5673 5674 5676 5677 5678 5679
5799 5798 5797 5796 5794 5793 5792 5790 5789 5787 5786 5784 5782 5780 5778 5776 5774 5773 5771 5769 5768 5766 5764 5762 5760 5758 5756 5754 5752 5749 5747 5744 5742 5740 5737 5734 5732 5729 5726 5723 5721 5718 5715 5712 5709 5707 5704 5701 5699 5696 5693 5691 5689 5686 5684 5682 5679 5677 5675 5674 5672 5670 5669 5668 5667 5666 5665 5664 5663 5663 5664 5664 5664 5664 5665 5665 5665 5665 5665 5666 5668 5669 5671 5672 5674
5797 5796 5794 5793 5792 5790 5789 5788 5786 5785 5783 5781 5779 5777 5775 5773 5772 5770 5768 5767 5765 5763 5762 5760 5758 5756 5754 5751 5749 5747 5745 5742 5740 5738 5735 5732 5729 5726 5723 5721 5718 5715 5712 5709 5706 5703 5700 5698 5695 5692 5689 5687 5685 5682 5680 5678 5676 5674 5671 5669 5667 5665 5664 5662 5661 5660 5659 5659 5657 5657 5657 5657 5658 5658 5658 5659 5659 5660 5660 5660 5661 5663 5664 5666 5667
5794 5793 5791 5790 5789 5787 5786 5785 5784 5782 5780 5778 5777 5774 5772 5770 5769 5767 5766 5764 5763 5761 5759 5757 5755 5753 5751 5749 5747 5745 5742 5740 5738 5735 5733 5730 5727 5724 5721 5718 5715 5712 5710 5706 5703 5700 5697 5694 5691 5688 5685 5683 5680 5678 5675 5673 5671 5669 5667 5665 5663 5661 5660 5658 5656 5654 5654 5653 5653 5652 5651 5651 5651 5651 5652 5652 5653 5653 5654 5655 5656 5657 5658 5659 5661
5791 5790 5788 5787 5786 5784 5783 5782 5780 5779 5777 5775 5773 5771 5769 5768 5766 5764 5763 5761 5760 5759 5757 5755 5753 5750 5748 5746 5744 5742 5740 5738 5736 5733 5730 5727 5725 5722 5719 5716 5713 5710 5707 5704 5701 5698 5694 5691 5688 5685 5682 5679 5677 5675 5672 5670 5668 5665 5663 5661 5659 5658 5656 5654 5652 5650 5649 5648 5648 5646 5646 5645 5645 5645 5645 5646 5646 5647 5648 5650 5651 5651 5652 5653 5655
5788 5787 5786 5784 5783 5782 5780 5779 5777 5775 5773 5771 5770 5768 5767 5765 5764 5762 5761 5759 5758 5756 5754 5752 5750 5748 5746 5744 5742 5740 5738 5736 5733 5731 5728 5725 5723 5720 5717 5713 5710 5707 5704 5701 5698 5695 5691 5688 5685 5682 5679 5676 5674 5672 5669 5667 5665 5663 5660 5658 5655 5653 5651 5650 5648 5647 5645 5644 5643 5642 5641 5640 5640 5640 5640 5640 5641 5641 5642 5644 5645 5646 5647 5647 5648
5785 5784 5783 5781 5780 5779 5777 5775 5774 5772 5770 5768 5767 5765 5764 5763 5761 5760 5758 5757 5755 5753 5751 5750 5748 5745 5743 5741 5739 5738 5736 5734 5731 5729 5726 5723 5721 5718 5714 5711 5707 5704 5701 5698 5695 5691 5688 5685 5682 5679 5676 5673 5670 5667 5665 5663 5661 5659 5657 5655 5652 5650 5648 5646 5644 5642 5641 5640 5639 5638 5637 5636 5635 5635 5635 5634 5635 5635 5636 5637 5638 5640 5641 5641 5643
5782 5780 5779 5778 5777 5776 5774 5772 5771 5769 5767 5765 5764 5763 5762 5760 5759 5757 5756 5755 5753 5751 5749 5747 5745 5743 5741 5739 5737 5735 5734 5731 5729 5726 5724 5721 5718 5715 5712 5708 5704 5701 5697 5694 5692 5688 5684 5681 5678 5675 5672 5669 5666 5664 5661 5659 5657 5655 5653 5651 5649 5647 5645 5643 5640 5638 5636 5635 5634 5633 5632 5632 5631 5630 5630 5629 5629 5629 5630 5630 5631 5633 5634 5635 5636
5778 5777 5776 5775 5774 5772 5771 5769 5767 5766 5764 5763 5762 5760 5759 5758 5756 5755 5754 5752 5750 5748 5746 5744 5742 5741 5739 5737 5735 5733 5731 5729 5727 5724 5722 5719 5716 5713 5710 5706 5702 5698 5694 5690 5688 5685 5681 5677 5674 5671 5669 5666 5663 5661 5658 5656 5654 5651 5649 5647 5645 5643 5641 5639 5637 5635 5633 5632 5630 5629 5628 5627 5626 5626 5625 5625 5625 5624 5624 5624 5625 5626 5627 5629 5630
5775 5774 5773 5772 5771 5769 5768 5766 5764 5763 5761 5760 5759 5758 5756 5755 5754 5753 5751 5749 5747 5745 5744 5742 5740 5738 5737 5735 5733 5731 5729 5727 5724 5722 5719 5716 5713 5710 5707 5703 5699 5695 5691 5687 5684 5682 5678 5674 5671 5668 5665 5663 5661 5658 5656 5653 5651 5649 5646 5644 5642 5640 5638 5636 5634 5632 5631 5629 5627 5625 5624 5623 5622 5621 5621 5620 5620 5620 5619 5619 5619 5620 5620 5622 5623
5772 5771 5770 5769 5767 5766 5764 5763 5761 5760 5759 5758 5756 5755 5754 5753 5751 5750 5749 5747 5745 5743 5741 5739 5738 5736 5734 5733 5731 5728 5726 5724 5722 5719 5717 5714 5710 5707 5704 5701 5697 5693 5689 5684 5680 5679 5676 5672 5668 5666 5663 5660 5658 5655 5653 5650 5648 5646 5643 5641 5638 5636 5634 5632 5630 5628 5626 5625 5623 5622 5620 5619 5617 5616 5616 5615 5615 5615 5614 5614 5614 5614 5615 5615 5617
5769 5768 5767 5765 5764 5763 5761 5760 5758 5757 5756 5755 5754 5752 5751 5750 5749 5747 5746 5744 5742 5740 5738 5737 5735 5734 5732 5730 5728 5726 5724 5722 5719 5717 5714 5711 5708 5705 5701 5698 5695 5691 5688 5683 5678 5675 5673 5670 5666 5663 5661 5658 5656 5653 5650 5648 5645 5643 5640 5638 5635 5633 5631 5629 5627 5625 5623 5621 5619 5618 5616 5615 5614 5612 5611 5610 5610 5610 5609 5609 5609 5609 5609 5610 5610
5765 5764 5763 5762 5761 5759 5758 5757 5755 5754 5753 5752 5751 5750 5749 5748 5746 5745 5743 5741 5739 5738 5736 5735 5733 5731 5730 5728 5726 5724 5721 5719 5717 5714 5711 5709 5705 5702 5699 5695 5692 5689 5685 5682 5676 5672 5670 5667 5664 5661 5659 5656 5654 5651 5649 5647 5644 5642 5639 5637 5635 5633 5631 5628 5626 5624 5621 5619 5616 5614 5612 5611 5610 5609 5608 5606 5605 5605 5604 5604 5604 5604 5604 5604 5605
5762 5761 5760 5758 5757 5756 5755 5754 5752 5751 5750 5749 5748 5747 5746 5745 5744 5742 5741 5739 5737 5736 5734 5732 5731 5729 5727 5725 5723 5721 5719 5717 5714 5712 5709 5706 5703 5699 5696 5692 5689 5685 5682 5679 5675 5671 5667 5665 5663 5660 5657 5655 5652 5650 5648 5646 5643 5641 5639 5637 5635 5632 5630 5627 5624 5621 5619 5616 5614 5612 5610 5608 5606 5605 5604 5603 5601 5600 5599 5599 5598 5598 5598 5599 5599
5759 5757 5756 5755 5754 5753 5752 5750 5749 5748 5747 5746 5745 5744 5743 5742 5741 5740 5738 5736 5735 5733 5732 5730 5729 5727 5725 5723 5721 5719 5717 5714 5712 5709 5706 5704 5700 5697 5693 5690 5686 5682 5679 5676 5673 5669 5666 5663 5661 5658 5656 5654 5651 5649 5647 5644 5642 5640 5638 5636 5633 5631 5628 5626 5623 5620 5618 5615 5612 5610 5608 5606 5604 5602 5600 5599 5598 5597 5595 5595 5594 5593 5593 5593 5593